Wind_Speed
25 23 21 20 19 18 17 16 15 14 13 14 13 13 12 12 13 13 13 13 14 15 16 18 20 20 19 19 20 22 24 25 25 25 24 22 20 18 17 17 17 17 16 15 14 12 11 10 9 8 7 6 6 5 5 5 5 5 5 5 6 7 8
28 26 25 24 24 23 21 19 18 17 16 16 15 15 14 14 14 14 14 13 14 16 17 18 19 20 20 20 20 21 23 24 24 25 24 24 22 19 18 18 18 18 17 17 15 14 13 12 11 10 9 8 8 7 6 6 5 5 5 6 6 7 9
31 29 28 28 28 27 24 22 21 19 18 17 16 16 15 15 16 15 15 14 14 15 18 19 19 19 21 21 21 21 22 23 24 24 24 24 22 21 20 19 19 19 19 18 17 15 15 14 13 12 11 10 9 9 7 6 6 6 6 6 7 8 9
33 32 31 31 30 28 25 24 23 21 20 19 18 17 17 17 17 17 17 17 16 16 18 21 20 19 21 23 23 22 22 23 23 23 23 23 24 23 22 21 20 20 20 19 18 18 17 16 15 14 12 12 11 10 9 8 7 7 6 6 7 8 9
36 35 34 33 31 29 27 26 26 24 23 21 20 19 19 18 17 18 19 19 18 18 18 20 20 19 20 23 25 24 24 24 23 23 23 23 24 25 24 22 22 21 21 20 20 19 18 17 16 15 14 13 12 12 11 10 9 7 7 7 7 7 8
38 37 36 35 33 31 29 29 28 27 25 23 21 20 19 19 18 19 20 20 20 20 18 20 22 22 22 23 26 26 26 26 26 25 24 24 25 25 24 23 23 23 22 22 21 21 20 19 17 16 15 14 14 14 12 11 10 9 8 7 7 7 9
40 38 37 36 34 33 32 30 30 29 27 24 22 21 21 21 19 19 20 21 22 21 21 21 23 25 25 25 26 28 29 28 27 27 26 26 25 25 24 24 24 24 24 23 23 22 21 20 19 18 16 16 16 15 13 12 11 9 9 9 9 9 10
40 39 38 37 36 35 33 32 32 30 28 25 24 23 23 21 20 19 19 21 23 23 23 23 24 26 27 27 26 28 30 30 29 28 28 27 26 25 25 26 25 25 25 24 23 23 22 21 21 19 18 17 17 16 15 13 12 10 10 10 10 11 11
42 40 39 38 37 37 35 34 33 31 28 27 25 24 23 22 21 20 20 21 23 24 25 25 26 26 27 28 27 27 29 31 31 30 30 29 28 27 27 26 26 26 26 25 25 24 23 23 22 21 19 19 18 18 16 15 13 12 11 11 12 13 13
43 41 40 40 39 38 37 35 33 31 29 28 27 25 24 23 22 22 21 22 24 25 26 26 27 26 27 28 28 27 28 31 32 32 32 30 29 27 27 27 27 28 27 26 26 25 25 24 24 22 21 20 20 20 18 16 14 13 13 13 13 14 14
44 43 42 41 40 39 38 35 33 32 31 31 29 27 26 25 24 23 23 23 24 25 26 27 28 28 27 28 28 28 29 31 33 34 33 32 29 28 27 27 28 28 28 27 27 26 26 26 25 24 22 22 22 21 20 18 16 15 15 14 15 15 14
44 43 42 41 40 39 37 35 34 34 34 32 31 29 27 26 25 24 24 24 24 25 26 28 29 29 29 29 28 29 30 32 34 35 35 33 31 29 28 28 29 29 28 27 27 27 27 27 26 25 24 24 24 23 22 20 19 17 16 16 16 15 14
44 43 43 41 40 39 38 36 36 36 35 34 32 30 29 27 26 25 25 25 25 25 27 29 30 31 31 31 30 30 31 32 34 35 35 34 32 31 30 29 30 30 29 28 27 28 28 28 27 26 26 26 26 25 23 22 21 20 18 18 17 16 16
45 44 44 43 41 40 39 38 38 37 36 34 32 31 30 28 27 26 26 26 26 26 28 30 31 32 33 33 32 32 32 32 33 34 34 34 33 33 32 32 31 30 30 29 29 29 29 29 28 28 28 28 27 26 25 24 23 22 21 20 19 18 18
46 45 45 43 42 41 40 39 38 38 36 34 33 32 31 29 28 28 28 28 28 29 30 31 32 33 34 34 34 34 33 32 32 33 34 34 34 35 35 34 34 32 31 31 31 31 30 30 30 30 30 29 28 28 27 26 25 24 23 22 21 20 21
48 46 45 43 42 41 41 39 38 38 36 35 34 34 32 31 30 30 30 30 30 31 32 33 34 34 35 36 36 36 34 32 32 33 33 34 35 36 36 37 36 34 33 33 33 32 32 32 32 32 31 30 30 30 29 28 27 26 25 24 23 23 23
48 47 45 44 43 42 41 40 39 38 37 36 35 35 34 32 32 32 33 32 33 33 34 35 35 36 37 37 37 36 35 33 32 32 33 34 35 36 37 38 38 37 36 35 34 34 34 34 34 33 32 32 32 32 31 30 29 28 28 26 25 25 25
50 49 48 45 43 42 41 41 40 39 38 38 37 36 35 34 33 34 34 35 35 35 35 36 37 37 38 38 37 37 36 35 34 33 34 34 35 36 37 39 40 40 39 38 36 35 35 36 35 34 34 34 34 33 33 32 31 31 30 29 28 27 27
52 50 49 46 44 43 42 42 42 41 40 39 38 37 36 35 35 36 37 37 37 37 37 37 38 38 38 38 38 38 38 38 36 35 34 34 35 35 37 39 41 42 42 41 38 37 37 37 36 35 35 35 35 35 35 34 34 33 32 32 31 30 29
52 51 49 47 45 44 43 43 43 42 41 40 39 38 38 37 37 37 38 37 37 37 38 39 39 39 39 38 39 39 40 40 39 37 36 35 34 35 36 39 41 43 44 43 41 40 40 39 38 37 37 37 36 36 37 37 36 36 35 34 34 33 33
53 52 50 48 46 45 44 44 43 42 41 40 40 39 38 38 38 38 38 38 38 38 39 40 40 40 40 39 39 40 41 41 41 40 38 36 35 35 36 39 40 41 43 44 43 43 42 41 40 39 39 38 38 38 39 38 38 38 38 37 37 37 37
54 52 50 49 48 47 46 45 44 43 42 41 40 40 39 40 40 39 40 40 40 40 40 40 40 40 40 40 40 41 42 43 43 42 40 38 36 36 37 38 39 39 40 42 44 45 44 43 42 41 41 40 39 40 41 40 39 40 40 40 40 40 40
55 53 51 50 49 48 47 46 45 43 42 42 41 41 41 41 41 41 41 41 40 40 40 40 41 41 41 42 42 43 43 44 44 44 42 40 39 38 37 37 38 38 38 40 41 43 44 44 43 43 42 41 42 43 42 41 41 42 42 42 42 43 43
56 54 52 51 50 49 48 47 45 44 43 43 43 42 42 42 42 42 42 41 39 40 40 41 42 42 42 44 44 44 44 44 44 45 44 43 41 40 39 38 38 38 39 40 40 40 42 43 44 44 44 45 45 45 44 43 42 43 43 43 44 45 45
57 55 54 52 51 50 49 48 46 46 45 44 43 42 42 43 43 43 42 40 40 40 41 42 43 43 44 45 45 45 45 45 45 46 46 45 44 41 40 38 37 38 39 40 40 40 40 42 44 46 47 48 48 47 47 45 44 44 44 44 44 45 46
59 57 56 54 53 51 50 49 47 46 46 45 44 44 44 44 44 43 42 41 41 42 43 44 45 45 45 45 45 46 46 46 46 46 47 47 46 43 42 40 39 38 39 39 40 41 42 42 43 45 46 48 48 49 49 48 46 46 46 45 45 46 46
61 59 58 56 55 53 51 50 48 47 46 45 44 44 44 44 43 43 42 42 43 44 45 45 46 46 45 46 46 46 47 47 47 47 47 47 47 45 44 42 41 40 40 40 40 42 43 43 44 44 45 46 48 49 49 48 47 47 47 47 46 46 47
63 61 60 58 56 54 53 50 49 47 45 44 44 45 44 44 43 43 43 44 45 46 45 45 46 46 46 46 46 46 47 47 48 48 48 47 47 46 45 44 43 41 41 40 41 41 42 43 44 45 46 46 47 48 48 48 47 47 48 48 48 47 48
64 62 61 59 57 55 53 51 49 47 45 45 45 45 44 44 44 44 45 46 46 45 44 44 45 45 45 45 44 45 46 47 47 47 47 48 47 47 46 45 43 43 42 41 41 41 41 42 43 44 45 46 47 47 47 47 46 46 47 48 48 49 49
65 63 62 60 58 56 54 52 49 47 46 46 46 45 44 44 44 45 46 46 45 43 43 44 44 44 43 43 43 43 44 45 46 47 47 48 48 47 46 45 44 44 44 43 43 42 42 42 42 43 43 43 44 45 45 46 46 46 47 47 48 49 50
66 65 63 61 59 57 55 53 50 48 47 47 47 46 45 44 45 45 46 45 44 42 42 43 43 43 42 41 41 42 43 44 44 45 46 47 47 48 47 46 46 46 46 46 46 45 45 45 44 44 43 43 43 43 44 44 45 46 46 46 47 48 49
69 66 65 62 60 59 57 55 52 50 49 49 48 47 46 45 44 44 44 43 42 42 42 42 43 42 41 40 40 41 42 43 44 44 44 45 46 48 48 48 48 49 49 49 49 49 49 48 47 47 45 44 44 43 43 44 45 45 45 46 46 47 47
71 68 66 64 62 60 58 56 54 52 51 51 50 48 47 45 44 43 43 42 42 42 42 42 42 42 40 39 40 41 42 43 44 44 44 45 46 47 49 51 52 53 53 53 52 52 51 50 49 48 46 45 44 43 42 42 43 44 45 45 45 45 46
72 70 67 65 63 60 59 57 54 52 52 51 50 49 47 46 44 43 43 43 43 41 40 41 41 41 40 39 39 40 41 43 44 45 46 47 48 49 51 53 54 55 55 54 53 52 51 49 48 47 46 45 44 43 42 42 42 43 43 44 44 45 45
72 71 68 66 63 60 58 58 55 53 53 52 50 49 47 46 44 43 44 43 42 40 40 40 41 42 41 39 38 38 39 41 42 44 46 48 50 51 52 54 55 55 55 54 54 53 52 50 49 48 47 47 46 46 45 44 44 44 44 44 44 44 44
72 71 69 66 63 61 59 57 56 54 53 52 50 49 48 46 44 44 44 43 41 40 41 41 42 42 42 40 38 38 38 38 39 40 43 46 49 51 53 54 54 54 54 54 54 54 53 52 51 51 50 49 49 48 47 47 46 45 45 45 44 43 43
71 70 69 66 63 61 59 57 56 55 54 53 51 50 49 47 46 45 45 43 42 42 43 43 43 43 43 42 41 40 39 38 38 39 40 43 45 48 50 51 52 53 53 54 54 54 54 54 53 53 52 51 51 50 49 48 47 46 45 45 44 43 42
70 69 68 66 63 61 59 58 56 56 55 54 52 51 50 49 47 46 45 44 43 44 45 45 45 45 44 44 43 43 42 41 40 40 40 41 43 44 45 47 49 51 52 53 54 54 54 54 54 53 53 53 52 51 51 50 49 48 47 47 46 44 44
Wind_Direction
233 233 232 233 234 232 230 232 233 231 231 232 234 234 230 228 228 226 226 229 232 230 226 225 225 220 211 204 202 203 207 210 212 211 212 213 216 217 214 213 214 216 218 219 220 221 225 231 234 238 241 247 257 271 286 298 306 312 312 314 323 330 335
232 230 228 229 231 231 227 227 229 229 231 233 234 237 236 234 233 230 228 227 229 235 236 232 228 223 217 211 209 207 206 209 212 214 215 216 218 217 214 212 212 214 217 220 221 222 225 230 233 235 237 240 247 258 272 284 292 299 301 304 311 319 324
231 230 229 231 234 236 232 229 230 230 233 234 234 237 239 238 236 233 230 226 224 230 237 239 234 225 219 217 215 213 211 210 211 213 217 219 221 219 217 215 214 216 219 222 224 226 228 230 232 233 235 238 243 251 261 269 276 282 289 296 305 311 316
230 230 231 233 236 238 238 236 235 232 232 233 234 236 237 237 237 236 233 228 223 225 230 238 240 232 223 219 217 218 218 216 213 212 215 220 223 222 221 220 219 221 224 225 226 229 230 230 231 232 234 237 242 248 255 258 261 266 275 287 298 307 311
229 231 232 233 235 236 237 237 237 235 234 233 233 236 239 240 239 239 237 232 226 225 227 234 239 239 232 225 219 218 220 221 219 214 214 218 223 225 225 225 225 226 227 228 229 231 232 232 232 233 234 237 241 247 251 252 253 257 264 277 290 303 312
228 230 231 233 234 234 235 236 238 239 238 236 235 239 243 243 242 240 240 238 233 228 227 231 233 234 233 229 223 219 220 223 222 218 216 216 222 227 229 229 229 229 229 231 232 232 233 234 234 235 236 238 240 244 247 248 251 257 265 276 287 299 311
228 230 231 234 235 234 234 236 238 240 241 239 238 240 243 245 245 243 241 241 238 232 227 228 231 232 232 230 226 222 221 223 224 222 221 219 220 226 230 231 232 232 233 234 234 234 235 236 236 236 237 238 240 243 245 246 251 260 267 277 287 297 307
227 229 231 233 235 234 234 236 238 240 241 241 239 240 244 248 249 248 246 244 242 237 230 228 229 232 233 232 230 226 224 224 225 225 225 223 222 224 229 233 234 235 236 237 238 238 238 238 238 237 237 237 240 242 243 244 249 258 267 277 287 294 300
225 226 229 231 233 234 234 235 238 240 242 242 242 242 246 249 251 251 250 246 244 241 236 232 230 232 233 234 234 233 229 226 226 227 227 226 225 224 228 233 236 238 239 239 240 241 241 241 240 239 237 237 239 240 241 242 247 253 262 273 283 289 293
224 224 226 228 231 233 235 236 239 241 242 242 242 243 244 247 249 250 250 247 244 243 241 237 233 232 234 234 234 235 233 230 227 227 229 229 228 227 229 233 237 240 241 242 243 243 244 244 243 241 238 236 237 237 238 241 245 250 257 268 277 282 287
223 223 225 227 229 232 235 236 238 239 240 240 241 242 243 245 247 249 250 249 248 246 244 240 235 233 233 234 234 234 235 234 231 229 229 230 230 230 231 233 238 242 243 245 246 246 246 246 246 244 240 237 236 235 236 240 243 247 254 263 270 275 280
223 224 225 226 229 232 234 235 236 238 240 241 243 244 245 245 246 248 250 252 251 248 245 242 238 234 234 234 233 232 234 236 235 233 231 230 229 230 232 234 237 241 244 246 248 248 248 248 248 246 242 239 237 235 236 239 242 246 252 260 266 268 271
226 226 226 227 229 231 233 234 236 238 240 241 244 246 247 248 248 250 252 253 253 249 246 243 240 236 234 234 233 233 233 234 237 238 237 235 230 229 231 235 238 241 244 246 248 249 249 249 249 247 244 241 239 237 237 239 243 246 250 258 262 263 265
228 228 229 229 230 231 232 234 236 238 240 243 245 248 249 250 250 251 253 253 252 249 246 245 243 239 236 234 234 234 233 233 235 239 241 241 236 230 229 233 236 239 242 244 246 247 248 249 249 248 245 243 241 239 239 241 244 246 251 257 260 260 262
227 228 230 231 232 232 233 235 237 239 241 243 246 248 250 250 251 252 253 252 250 247 244 243 243 241 238 236 235 235 235 234 234 236 240 242 241 236 232 232 234 236 239 242 244 246 247 248 248 247 246 245 242 241 241 243 245 247 251 257 260 261 261
227 227 228 230 232 233 234 235 237 239 242 244 246 248 250 251 251 252 252 251 249 246 244 242 242 241 239 237 236 235 235 237 236 235 236 240 242 241 238 236 235 235 236 239 242 244 246 246 247 247 247 246 244 242 243 245 247 249 252 257 261 262 263
227 227 227 228 229 231 233 234 236 239 241 243 245 248 250 251 253 254 254 252 250 248 245 243 241 241 240 239 237 236 235 237 238 237 236 237 240 242 242 240 238 237 236 237 239 242 244 245 246 247 247 247 246 244 245 247 248 250 252 256 261 263 264
225 226 227 227 228 231 233 234 237 239 240 242 245 247 250 252 253 254 253 251 249 248 245 243 241 241 241 240 238 236 235 236 237 238 238 237 238 240 242 243 242 240 239 238 238 240 243 245 246 247 247 247 246 246 247 248 249 250 253 256 259 262 265
226 226 227 227 228 230 233 235 237 238 240 242 245 246 248 250 251 251 251 251 251 249 246 244 242 241 241 241 239 237 235 235 237 238 239 239 239 239 240 242 243 242 241 240 239 239 242 244 245 246 247 247 247 247 247 248 249 251 253 256 259 261 264
227 228 229 228 229 230 233 236 239 241 243 245 246 247 249 250 251 251 252 253 252 250 247 245 243 242 241 241 240 238 236 235 236 237 239 241 242 241 239 239 241 241 241 242 240 240 241 242 243 245 247 247 247 248 248 248 250 252 254 256 258 261 263
227 228 229 230 230 231 234 237 240 242 245 246 248 249 250 251 251 251 251 251 249 248 246 245 244 243 241 240 240 239 237 235 235 236 237 240 242 242 239 238 239 240 241 241 241 241 241 242 243 244 246 247 248 249 249 249 251 253 255 256 258 260 261
227 228 229 230 232 233 235 237 240 242 244 246 247 248 249 249 250 249 249 248 247 246 245 244 244 243 242 240 239 238 237 235 234 234 236 238 240 242 241 241 241 242 242 243 242 243 243 243 243 244 246 247 249 250 250 251 252 254 255 256 258 260 261
226 228 229 230 232 233 235 238 240 242 244 246 247 249 249 250 249 249 248 247 247 246 245 244 243 243 242 241 239 238 237 236 234 234 234 236 239 241 242 242 243 244 245 244 244 244 245 245 245 245 246 247 248 250 250 250 252 253 255 257 258 260 261
226 227 228 230 232 233 234 236 238 240 242 245 247 249 250 251 250 249 248 247 246 245 244 244 243 242 242 241 240 239 237 236 235 234 234 235 237 240 242 243 245 245 246 246 246 246 246 246 246 246 246 246 247 248 249 249 251 253 254 256 258 260 261
224 226 228 229 231 232 233 235 236 238 240 243 245 247 248 249 248 249 248 247 245 244 243 243 243 242 242 242 241 240 239 237 235 234 233 234 236 238 241 244 245 246 247 246 246 246 246 246 245 245 246 247 247 248 249 249 250 251 253 255 257 259 261
224 225 227 228 229 231 232 233 235 237 239 241 243 244 246 247 247 248 247 246 244 243 242 242 242 242 242 242 242 241 240 238 236 235 234 234 235 237 240 243 245 246 247 246 246 246 246 246 246 246 247 248 248 249 250 250 251 252 253 255 256 259 261
224 225 226 228 229 230 231 232 234 236 238 240 242 243 245 246 247 247 246 245 244 243 242 243 243 243 243 243 243 242 241 240 238 237 236 235 235 237 239 241 243 245 247 248 248 248 248 247 247 247 247 248 249 250 251 252 252 253 254 256 257 259 261
224 225 227 228 229 230 231 232 234 236 238 240 241 242 244 245 246 246 245 245 244 243 243 244 245 245 245 245 244 244 243 242 241 239 237 236 236 237 238 240 242 245 247 249 250 250 250 250 250 250 249 249 250 251 252 253 253 254 256 257 258 259 261
225 226 227 228 229 231 232 233 234 235 237 238 240 241 242 243 244 245 244 244 244 245 245 245 246 247 247 247 246 245 244 243 242 240 238 237 236 237 238 240 242 244 246 248 250 251 252 253 253 253 252 251 252 252 253 254 255 255 256 257 259 259 260
226 227 228 228 229 231 232 233 234 235 236 237 239 240 240 242 243 244 244 245 246 246 246 246 247 248 248 247 246 245 244 243 241 239 238 237 236 236 237 239 241 243 245 247 248 250 251 252 253 253 253 252 252 253 253 254 255 255 256 257 258 259 259
226 227 228 229 230 231 232 232 232 233 234 236 237 238 239 240 241 244 245 246 247 247 247 247 247 247 247 246 244 243 242 241 240 239 238 237 236 236 237 238 240 242 244 245 246 247 249 249 251 252 253 253 254 254 255 255 256 256 257 257 257 257 258
227 227 229 230 230 231 232 232 232 232 233 235 236 237 237 238 240 242 244 245 246 246 245 245 246 246 245 244 243 241 240 239 238 238 237 237 236 236 236 238 240 242 243 243 244 245 247 248 250 252 254 256 257 258 259 259 259 259 259 259 259 258 258
227 227 228 229 230 231 232 232 232 231 233 235 236 236 237 238 239 240 242 243 244 244 244 245 245 245 245 243 242 240 239 238 237 236 236 236 235 235 236 238 240 241 242 243 245 246 248 250 252 254 256 258 259 260 261 261 261 262 262 261 261 260 260
226 227 228 228 229 230 231 232 231 231 232 235 236 236 237 238 239 240 241 241 242 243 244 245 246 246 245 244 243 242 241 240 239 237 236 235 235 235 236 238 240 242 243 245 247 249 250 252 253 254 255 257 258 258 258 260 261 262 262 262 262 261 261
226 226 227 227 228 228 230 231 231 230 232 234 236 237 238 239 240 241 241 242 242 244 245 246 247 247 246 245 245 244 243 243 243 242 240 238 237 237 238 239 240 242 244 246 247 248 250 251 252 253 254 255 256 256 258 259 260 262 262 262 263 263 263
226 226 226 226 227 227 228 229 230 230 232 234 236 237 238 239 240 242 243 243 243 244 244 245 247 248 248 246 244 243 243 243 244 245 244 243 242 241 241 242 243 244 245 246 247 248 249 251 251 253 253 254 255 257 258 259 261 262 263 264 264 264 265
226 226 226 226 226 226 227 228 229 230 231 233 235 236 238 239 239 241 243 243 243 243 243 244 245 247 248 247 245 244 244 245 246 247 247 247 247 246 246 246 246 246 246 246 247 248 249 250 251 252 253 254 255 257 258 259 261 262 262 263 263 263 264
225 225 225 225 225 225 226 226 227 229 231 233 234 236 237 238 239 240 242 243 243 243 244 244 245 246 247 247 248 248 248 249 250 249 249 249 249 250 250 249 248 247 247 247 247 247 248 249 250 250 251 253 255 256 257 258 259 260 260 260 261 262 264
Height
10958 10959 10961 10962 10964 10965 10967 10969 10970 10972 10973 10974 10975 10975 10977 10978 10979 10981 10982 10984 10986 10987 10988 10989 10990 10992 10994 10996 10997 10998 11000 11001 11003 11004 11006 11007 11008 11009 11010 11011 11012 11013 11014 11015 11015 11016 11017 11017 11018 11018 11019 11019 11020 11020 11020 11021 11021 11021 11021 11021 11021 11020 11020
10953 10955 10957 10958 10959 10961 10964 10966 10967 10969 10970 10972 10973 10973 10975 10976 10977 10979 10980 10982 10984 10985 10986 10987 10989 10991 10993 10994 10995 10996 10998 11000 11002 11003 11004 11005 11007 11008 11009 11010 11011 11012 11013 11013 11014 11015 11016 11016 11017 11017 11018 11018 11019 11019 11020 11020 11020 11020 11020 11020 11020 11020 11019
10948 10951 10953 10954 10956 10958 10961 10963 10963 10966 10968 10969 10971 10972 10973 10974 10975 10977 10978 10980 10982 10983 10984 10985 10987 10989 10991 10993 10994 10995 10996 10998 10999 11001 11003 11005 11006 11007 11008 11009 11010 11011 11011 11012 11013 11014 11014 11015 11016 11016 11017 11017 11018 11018 11019 11019 11019 11019 11020 11020 11020 11019 11019
10943 10946 10948 10950 10953 10955 10958 10960 10960 10962 10964 10966 10968 10970 10971 10972 10973 10974 10976 10977 10979 10981 10982 10983 10985 10987 10989 10990 10992 10993 10995 10996 10997 10999 11001 11003 11005 11005 11007 11008 11009 11009 11010 11011 11012 11012 11013 11014 11014 11015 11016 11016 11017 11017 11018 11018 11019 11019 11019 11019 11019 11019 11018
10938 10941 10944 10946 10949 10952 10954 10956 10957 10958 10960 10962 10965 10967 10968 10969 10971 10972 10973 10975 10977 10978 10980 10981 10983 10985 10987 10988 10990 10991 10993 10994 10996 10998 10999 11001 11002 11003 11005 11006 11007 11008 11009 11009 11010 11011 11012 11012 11013 11014 11015 11015 11016 11016 11017 11018 11018 11018 11018 11018 11018 11018 11018
10934 10936 10940 10942 10945 10948 10950 10952 10954 10955 10957 10959 10961 10964 10966 10967 10968 10969 10971 10972 10974 10976 10978 10979 10981 10982 10984 10985 10987 10989 10990 10992 10993 10995 10997 10998 11000 11001 11003 11005 11006 11007 11007 11008 11008 11009 11010 11011 11012 11013 11013 11014 11015 11015 11016 11017 11017 11017 11017 11017 11017 11017 11017
10930 10933 10936 10939 10942 10944 10946 10949 10951 10952 10954 10956 10958 10960 10962 10964 10965 10967 10968 10970 10971 10973 10975 10977 10978 10979 10980 10982 10985 10986 10987 10989 10991 10993 10994 10996 10998 11000 11001 11003 11004 11005 11005 11006 11007 11008 11008 11009 11010 11011 11012 11013 11014 11014 11015 11016 11016 11016 11016 11016 11016 11016 11015
10926 10929 10932 10935 10938 10940 10942 10944 10947 10949 10952 10953 10955 10957 10958 10960 10962 10964 10966 10967 10969 10971 10972 10974 10975 10976 10978 10979 10981 10983 10985 10986 10988 10990 10992 10993 10995 10997 10999 11000 11001 11002 11003 11004 11005 11006 11007 11007 11008 11009 11010 11011 11012 11013 11014 11014 11015 11015 11015 11015 11014 11014 11014
10922 10925 10928 10931 10933 10935 10938 10940 10943 10946 10949 10950 10951 10953 10955 10957 10959 10961 10963 10965 10966 10967 10969 10971 10972 10974 10975 10977 10979 10981 10983 10984 10986 10987 10989 10990 10992 10994 10996 10997 10999 11000 11001 11003 11004 11004 11005 11006 11006 11007 11008 11009 11010 11011 11011 11012 11013 11013 11013 11013 11013 11013 11013
10917 10920 10923 10926 10929 10931 10934 10937 10940 10943 10944 10946 10947 10950 10952 10954 10956 10957 10959 10961 10963 10964 10966 10968 10970 10971 10972 10974 10976 10978 10980 10981 10983 10984 10985 10987 10990 10992 10993 10995 10996 10997 10999 11000 11001 11002 11003 11004 11004 11005 11006 11007 11008 11008 11009 11010 11011 11011 11012 11012 11012 11012 11011
10912 10916 10919 10922 10925 10927 10930 10934 10936 10938 10939 10941 10943 10946 10948 10950 10952 10954 10956 10958 10959 10961 10963 10965 10967 10968 10969 10971 10973 10975 10977 10978 10979 10981 10982 10984 10987 10989 10991 10992 10993 10994 10996 10998 10999 11000 11001 11002 11002 11003 11004 11005 11005 11006 11007 11008 11008 11009 11009 11010 11010 11010 11010
10907 10911 10914 10918 10921 10924 10927 10930 10932 10933 10934 10937 10939 10942 10944 10947 10949 10951 10952 10954 10956 10958 10960 10962 10963 10965 10966 10968 10970 10972 10974 10975 10976 10977 10979 10982 10984 10986 10987 10989 10990 10991 10993 10995 10996 10998 10999 10999 11000 11001 11002 11003 11003 11004 11005 11005 11006 11007 11007 11008 11008 11008 11008
10903 10907 10910 10914 10917 10920 10924 10926 10927 10928 10930 10933 10935 10938 10940 10943 10945 10947 10949 10951 10953 10955 10956 10958 10960 10961 10963 10965 10966 10968 10970 10972 10973 10974 10976 10979 10981 10983 10984 10985 10987 10988 10990 10992 10993 10994 10996 10997 10998 10999 11000 11000 11001 11001 11002 11003 11004 11004 11005 11005 11006 11006 11006
10899 10903 10906 10910 10913 10916 10919 10921 10922 10924 10926 10929 10932 10934 10937 10939 10941 10944 10945 10947 10949 10951 10952 10954 10956 10957 10959 10961 10963 10964 10966 10968 10970 10972 10974 10976 10978 10980 10981 10982 10983 10985 10987 10988 10990 10991 10992 10994 10995 10996 10997 10997 10998 10999 11000 11000 11001 11002 11002 11003 11003 11003 11003
10893 10897 10901 10905 10908 10911 10914 10916 10918 10920 10922 10925 10927 10929 10932 10935 10937 10939 10941 10944 10945 10947 10948 10950 10952 10953 10955 10957 10958 10960 10962 10965 10967 10969 10971 10973 10975 10976 10977 10978 10980 10982 10984 10985 10986 10987 10989 10990 10992 10992 10993 10994 10995 10996 10997 10998 10999 10999 11000 11000 11000 11001 11001
10887 10890 10895 10899 10902 10905 10908 10911 10913 10915 10917 10920 10923 10925 10928 10930 10933 10935 10937 10939 10941 10942 10944 10946 10947 10949 10951 10953 10954 10956 10959 10962 10964 10966 10968 10969 10971 10972 10973 10974 10976 10978 10980 10981 10983 10984 10986 10987 10988 10989 10990 10991 10992 10993 10994 10995 10996 10997 10997 10998 10998 10998 10998
10880 10885 10889 10893 10896 10899 10902 10905 10908 10910 10913 10916 10918 10920 10923 10926 10928 10930 10932 10935 10936 10938 10940 10942 10943 10945 10947 10949 10951 10953 10956 10958 10960 10962 10964 10965 10967 10968 10969 10971 10972 10974 10975 10977 10979 10981 10982 10983 10984 10985 10987 10988 10989 10990 10991 10993 10994 10994 10995 10995 10995 10995 10995
10874 10878 10883 10887 10891 10893 10896 10900 10903 10905 10908 10910 10913 10916 10918 10921 10924 10925 10927 10929 10931 10934 10936 10938 10939 10941 10943 10945 10948 10950 10952 10953 10955 10957 10959 10961 10963 10964 10966 10967 10968 10970 10971 10973 10975 10977 10978 10979 10981 10982 10984 10984 10985 10987 10988 10990 10991 10991 10992 10992 10992 10992 10992
10868 10873 10878 10883 10887 10889 10891 10894 10897 10899 10902 10905 10908 10911 10914 10916 10919 10920 10922 10924 10927 10929 10931 10933 10935 10937 10939 10942 10944 10946 10947 10949 10951 10953 10955 10957 10959 10961 10962 10963 10964 10965 10967 10968 10971 10973 10974 10975 10977 10979 10980 10981 10982 10984 10985 10986 10987 10988 10989 10989 10989 10989 10989
10863 10868 10873 10878 10882 10884 10886 10888 10891 10894 10897 10900 10903 10906 10909 10912 10914 10915 10918 10920 10923 10925 10927 10929 10931 10933 10935 10938 10939 10941 10943 10945 10947 10948 10950 10953 10955 10956 10958 10958 10959 10961 10963 10965 10967 10968 10969 10971 10973 10975 10976 10977 10979 10980 10981 10983 10984 10984 10985 10986 10986 10985 10985
10857 10862 10867 10872 10876 10879 10881 10883 10886 10889 10892 10895 10898 10901 10904 10907 10909 10911 10913 10916 10918 10920 10921 10924 10926 10929 10931 10933 10935 10936 10938 10940 10942 10944 10946 10948 10950 10951 10952 10953 10954 10956 10958 10960 10962 10963 10964 10967 10969 10970 10971 10973 10974 10975 10977 10979 10980 10981 10981 10982 10982 10981 10981
10850 10856 10862 10866 10870 10874 10877 10878 10881 10884 10887 10890 10893 10896 10899 10901 10904 10906 10908 10910 10912 10914 10916 10919 10921 10924 10926 10928 10929 10931 10933 10934 10937 10939 10941 10943 10945 10946 10947 10948 10950 10952 10954 10956 10958 10959 10960 10962 10964 10965 10967 10969 10970 10970 10972 10974 10976 10976 10977 10977 10977 10977 10977
10844 10850 10856 10860 10864 10868 10871 10874 10877 10880 10883 10885 10888 10891 10893 10896 10899 10901 10903 10905 10908 10909 10911 10913 10915 10918 10920 10922 10923 10925 10927 10929 10932 10934 10936 10938 10939 10940 10942 10943 10945 10948 10950 10951 10953 10954 10956 10958 10960 10962 10963 10964 10964 10965 10967 10969 10970 10971 10971 10972 10972 10972 10972
10838 10844 10849 10854 10858 10862 10866 10869 10872 10875 10878 10880 10883 10886 10888 10891 10893 10895 10898 10900 10903 10904 10906 10907 10910 10912 10914 10915 10917 10919 10921 10924 10926 10929 10931 10932 10934 10935 10937 10939 10941 10943 10944 10946 10948 10949 10951 10953 10955 10957 10958 10958 10958 10959 10962 10964 10965 10965 10966 10967 10967 10967 10967
10832 10837 10842 10847 10851 10855 10859 10863 10867 10870 10873 10875 10878 10881 10883 10885 10887 10889 10892 10895 10897 10898 10900 10902 10904 10906 10907 10909 10911 10914 10916 10918 10920 10922 10924 10926 10928 10930 10932 10934 10936 10938 10939 10940 10942 10944 10946 10947 10949 10950 10951 10952 10953 10954 10956 10958 10960 10960 10961 10962 10962 10961 10961
10826 10831 10836 10840 10844 10849 10853 10857 10861 10864 10867 10870 10873 10875 10877 10878 10881 10884 10887 10889 10891 10892 10893 10895 10898 10900 10902 10904 10906 10908 10910 10912 10914 10916 10918 10921 10923 10925 10928 10929 10931 10932 10934 10935 10936 10938 10939 10941 10942 10944 10945 10946 10948 10949 10950 10953 10955 10955 10956 10957 10957 10956 10956
10820 10825 10829 10834 10838 10842 10847 10851 10855 10858 10861 10865 10867 10869 10871 10873 10876 10878 10881 10883 10885 10885 10887 10890 10892 10895 10897 10899 10900 10902 10904 10906 10908 10910 10913 10915 10918 10920 10922 10924 10926 10927 10928 10930 10931 10932 10933 10934 10936 10937 10939 10940 10942 10943 10944 10947 10949 10951 10951 10951 10952 10952 10951
10814 10819 10823 10828 10832 10836 10840 10845 10849 10852 10856 10860 10862 10863 10866 10868 10871 10873 10875 10876 10877 10879 10883 10886 10888 10889 10892 10893 10895 10897 10899 10901 10903 10905 10907 10910 10913 10915 10917 10919 10920 10922 10923 10925 10926 10927 10928 10929 10930 10932 10933 10935 10936 10937 10938 10941 10943 10945 10946 10946 10947 10947 10946
10808 10813 10817 10822 10827 10831 10835 10839 10843 10847 10851 10854 10856 10858 10861 10863 10865 10867 10868 10869 10871 10875 10879 10881 10882 10884 10887 10888 10891 10893 10894 10896 10898 10900 10902 10904 10907 10909 10912 10914 10915 10917 10918 10919 10920 10921 10923 10924 10925 10926 10928 10929 10930 10931 10933 10935 10937 10939 10940 10941 10941 10941 10940
10802 10807 10811 10816 10821 10825 10829 10833 10838 10842 10845 10848 10850 10853 10856 10858 10860 10861 10862 10864 10867 10871 10874 10876 10878 10880 10881 10883 10885 10887 10889 10890 10892 10894 10896 10899 10902 10904 10906 10908 10910 10911 10912 10913 10915 10916 10917 10918 10919 10920 10922 10923 10924 10926 10927 10929 10931 10933 10934 10935 10935 10935 10934
10797 10801 10806 10810 10815 10819 10823 10828 10832 10836 10840 10842 10844 10847 10851 10853 10855 10856 10858 10860 10864 10867 10869 10871 10873 10874 10876 10878 10879 10881 10883 10884 10886 10888 10891 10893 10896 10898 10900 10902 10904 10905 10906 10907 10909 10910 10911 10912 10913 10915 10916 10918 10919 10920 10922 10923 10925 10926 10927 10929 10929 10929 10928
10791 10795 10800 10804 10809 10813 10817 10821 10826 10831 10833 10836 10838 10842 10845 10848 10850 10852 10853 10856 10859 10861 10864 10865 10867 10869 10870 10872 10873 10875 10877 10879 10880 10883 10886 10888 10890 10892 10894 10896 10897 10898 10899 10900 10902 10903 10905 10907 10908 10909 10911 10913 10914 10916 10917 10918 10918 10920 10921 10922 10922 10922 10923
10783 10788 10793 10798 10803 10808 10811 10816 10821 10825 10827 10830 10833 10836 10839 10842 10845 10847 10849 10851 10853 10855 10858 10860 10862 10863 10865 10866 10868 10869 10871 10873 10875 10877 10880 10882 10884 10886 10888 10889 10890 10891 10893 10894 10896 10898 10900 10902 10904 10905 10907 10908 10909 10911 10911 10912 10913 10913 10915 10916 10916 10917 10917
10777 10782 10787 10792 10798 10802 10806 10810 10815 10819 10822 10824 10827 10831 10834 10837 10840 10842 10843 10845 10847 10850 10852 10854 10856 10857 10859 10861 10862 10864 10865 10867 10869 10871 10873 10875 10877 10879 10881 10882 10884 10885 10887 10889 10892 10894 10896 10898 10899 10900 10901 10903 10903 10904 10905 10906 10906 10907 10908 10909 10910 10910 10911
10770 10775 10780 10786 10792 10797 10801 10804 10809 10813 10816 10818 10821 10825 10828 10831 10834 10836 10838 10839 10842 10845 10847 10848 10849 10851 10853 10855 10857 10859 10860 10862 10864 10866 10868 10870 10871 10873 10875 10876 10878 10880 10882 10884 10886 10888 10890 10892 10893 10894 10896 10896 10897 10898 10899 10900 10900 10901 10902 10903 10904 10904 10905
10762 10768 10774 10780 10785 10790 10794 10798 10803 10807 10810 10812 10816 10819 10822 10825 10828 10830 10832 10834 10837 10839 10840 10842 10843 10845 10847 10850 10852 10853 10855 10857 10859 10861 10863 10864 10866 10867 10869 10871 10873 10874 10876 10878 10880 10882 10883 10885 10886 10888 10889 10889 10890 10892 10892 10893 10894 10895 10896 10897 10898 10899 10899
10756 10762 10768 10773 10778 10783 10788 10792 10797 10801 10803 10806 10810 10813 10816 10819 10822 10824 10826 10829 10831 10833 10834 10836 10838 10839 10841 10844 10846 10848 10850 10852 10854 10856 10858 10859 10860 10862 10863 10865 10867 10869 10870 10872 10873 10875 10877 10878 10880 10881 10882 10883 10884 10885 10886 10887 10888 10889 10890 10891 10892 10893 10894
10749 10755 10760 10766 10771 10776 10780 10785 10790 10794 10796 10800 10803 10806 10808 10812 10815 10818 10820 10823 10825 10826 10828 10830 10832 10834 10836 10838 10840 10842 10844 10847 10849 10851 10853 10854 10855 10856 10858 10859 10861 10863 10864 10866 10867 10869 10870 10872 10873 10874 10875 10877 10878 10879 10880 10881 10882 10884 10884 10885 10886 10888 10889